This demonstration page uses our WeatherBlox Daily Observations layout. Learn more.

Left ArrowRight Arrow

39.08367, -84.50855

Hourly Observations for May 10, 2016

Temp ( °F °C ) Dew Point ( °F °C ) Humidity (%) Winds ( mph kmh ) Pressure ( in mb ) Visibility ( mi km ) Precip ( " mm )
12:53 am 00:53 Cloudy with Mist and Fog 58 14.4 57 13.9 97 97 Calm 30.04 1017 5 8 0.00 0.03
1:53 am 01:53 Clear with Mist and Fog 56 13.3 56 13.3 100 100 NNE 3 6 30.04 1017 3 5 0.00 0.00
2:53 am 02:53 Cloudy with Light Rain 56 13.3 56 13.3 100 100 NE 3 6 30.03 1017 4 6 0.01 0.25
3:53 am 03:53 Partly Cloudy with Mist and Fog 56 13.3 56 13.3 100 100 Calm 30.03 1017 3 4 0.00 0.03
4:16 am 04:16 Mostly Cloudy with Mist and Fog 55 13 55 13 100 100 Calm 30.03 1017 1 1 0.00 0.00
4:34 am 04:34 Mostly Cloudy with Mist and Fog 55 13 55 13 100 100 Calm 30.03 1017 1 2 0.00 0.00
4:49 am 04:49 Mostly Cloudy with Fog 54 12 54 12 100 100 Calm 30.03 1017 1 1 0.00 0.00
4:53 am 04:53 Mostly Cloudy with Fog 55 12.8 55 12.8 100 100 Calm 30.04 1017 1 1 0.00 0.00
5:04 am 05:04 Mostly Cloudy with Mist and Fog 55 13 55 13 100 100 NE 5 7 30.03 1017 2 3 0.00 0.00
5:23 am 05:23 Mostly Cloudy with Mist and Fog 55 12.8 55 12.8 100 100 NNE 5 7 30.03 1017 3 5 0.00 0.00
5:44 am 05:44 Mostly Cloudy with Mist and Fog 54 12.2 54 12.2 100 100 NNE 3 6 30.03 1017 2 3 0.00 0.00
5:51 am 05:51 Mostly Cloudy with Mist and Fog 54 12 54 12 100 100 Calm 30.03 1017 1 1 0.00 0.00
5:53 am 05:53 Mostly Cloudy with Fog 54 12.2 54 12.2 100 100 Calm 30.02 1017 1 1 0.00 0.00
6:08 am 06:08 Mostly Clear with Fog 54 12 54 12 100 100 Calm 30.03 1017 0 0 0.00 0.00
6:17 am 06:17 Partly Cloudy with Fog 54 12.2 54 12.2 100 100 Calm 30.03 1017 0 0 0.00 0.00
6:41 am 06:41 Mostly Cloudy with Mist and Fog 53 11.7 53 11.7 100 100 Calm 30.03 1017 1 1 0.00 0.00
6:53 am 06:53 Mostly Cloudy with Fog 54 12.2 54 12.2 100 100 Calm 30.02 1017 1 1 0.00 0.00
7:16 am 07:16 Mostly Cloudy 54 12 54 12 100 100 Calm 30.03 1017 7 11 0.00 0.00
7:53 am 07:53 Mostly Cloudy 57 13.9 57 13.9 100 100 NE 3 6 30.02 1017 7 11 0.00 0.00
8:53 am 08:53 Mostly Cloudy 62 16.7 58 14.4 86 86 Calm 30.02 1017 7 11 0.00 0.00
9:53 am 09:53 Mostly Cloudy 66 18.9 59 15 78 78 S 10 17 30.02 1017 10 16 0.00 0.00
10:53 am 10:53 Mostly Cloudy 67 19.4 60 15.6 79 79 S 10 17 30.02 1017 10 16 0.00 0.00
11:53 am 11:53 Cloudy with Light Rain 67 19.4 63 17.2 87 87 S 8 13 30.01 1016 8 13 0.02 0.51
12:53 pm 12:53 Cloudy with Light Rain 67 19.4 64 17.8 91 91 SSE 10 17 30.01 1016 10 16 0.00 0.03
1:53 pm 13:53 Cloudy with Light Rain 68 20 64 17.8 87 87 S 15 24 29.99 1016 10 16 0.00 0.03
2:53 pm 14:53 Mostly Cloudy 73 22.8 64 17.8 74 74 SSW 14 22 29.98 1015 10 16 0.00 0.03
3:53 pm 15:53 Mostly Cloudy 73 22.8 63 17.2 71 71 SSW 9 15 29.97 1015 10 16 0.00 0.00
4:13 pm 16:13 Windy with Storms Likely 71 21.7 62 16.7 73 73 W 36 57 30.03 1017 7 11 0.01 0.25
4:18 pm 16:18 Cloudy with Strong Thunderstorms 63 17 59 15 88 88 W 21 33 30.03 1017 3 4 0.00 0.00
4:53 pm 16:53 Cloudy with Light Rain 61 16.1 61 16.1 100 100 VRB 5 7 29.98 1015 3 5 0.16 4.06
5:53 pm 17:53 Mostly Sunny 63 17 63 17 100 100 SSW 5 7 29.97 1015 10 16 0.00 0.00
6:53 pm 18:53 Mostly Cloudy with Light Rain 63 17.2 61 16.1 93 93 Calm 29.99 1016 10 16 0.02 0.51
7:53 pm 19:53 Partly Cloudy with Light Rain 62 16.7 61 16.1 96 96 SSW 3 6 29.99 1016 10 16 0.00 0.03
8:53 pm 20:53 Cloudy with Rain 61 16.1 59 15 93 93 S 12 19 29.98 1015 10 16 0.10 2.54
9:53 pm 21:53 Mostly Cloudy with Light Rain 61 16.1 59 15 93 93 Calm 30.01 1016 8 13 0.04 1.02
10:53 pm 22:53 Mostly Cloudy 59 15 59 15 100 100 NE 3 6 30.00 1016 10 16 0.00 0.03
11:53 pm 23:53 Mostly Cloudy with Light Rain 59 15 59 15 100 100 Calm 30.01 1016 10 16 0.00 0.03

Powered by AerisWeather